Lafayette, LA

8:26 PM CDT on September 25, 2016 (GMT -0500)
Lafayette Regional

Weather History for KLFT - March, 2014

Change the Weather History Date:

Sunday, March 23, 2014

  Actual Average Record
Temperature  
Mean Temperature 61 °F 64 °F  
Max Temperature 69 °F 74 °F 88 °F (1929)
Min Temperature 52 °F 53 °F 32 °F (1955)
Degree Days  
Heating Degree Days 4 4  
Month to date heating degree days 187 125  
Since 1 July heating degree days 1847 1355  
Cooling Degree Days 0 2  
Month to date cooling degree days 17 40  
Year to date cooling degree days 31 72  
Growing Degree Days 10 (Base 50)    
Moisture  
Dew Point 58 °F    
Average Humidity 84    
Maximum Humidity 100    
Minimum Humidity 67    
Precipitation  
Precipitation 0.06 in 0.11 in 2.59 in (1969)
Month to date precipitation 1.84 2.84  
Year to date precipitation 9.09 12.96  
Snow  
Snow 0.00 in 0.00 in 0.00 in ()
Month to date snowfall 0.0 0.0  
Since 1 July snowfall 0.8 T  
Snow Depth 0.00 in    
Sea Level Pressure  
Sea Level Pressure 30.08 in    
Wind  
Wind Speed 12 mph (North)    
Max Wind Speed 24 mph    
Max Gust Speed 32 mph    
Visibility 8 miles    
Events Fog , Rain , Thunderstorm    
T = Trace of Precipitation, MM = Missing Value Source: NWS Daily Summary

Daily Weather History Graph

Daily Weather History Graph

Search for Another Location

Airport or City:

Trip Planner

Search our weather history database for the weather conditions in past years. The results will help you decide how hot, cold, wet, or windy it might be!

Date:

Astronomy

Mar. 23, 2014 Rise Set
Actual Time 7:08 AM CDT 7:21 PM CDT
Civil Twilight 6:44 AM CDT 7:45 PM CDT
Nautical Twilight 6:16 AM CDT 8:13 PM CDT
Astronomical Twilight 5:47 AM CDT 8:41 PM CDT
Moon 1:18 AM CDT (3/23) 12:09 PM CDT (3/23)
Length of Visible Light 13h 01m
Length of Day
12h 13m
Waning Gibbous, 54% of the Moon is Illuminated
Mar 23
Waning Gibbous
Mar 23
Last Quarter
Mar 30
New
Apr 7
First Quarter
Apr 15
Full

Hourly Weather History & Observations

Time (CDT) Temp. Dew Point Humidity Pressure Visibility Wind Dir Wind Speed Gust Speed Precip Events Conditions
12:53 AM 66.9 °F 66.0 °F 97% 30.01 in 10.0 mi South 3.5 mph - N/A   Overcast
1:13 AM 66.9 °F 66.0 °F 97% 30.00 in 9.0 mi South 9.2 mph - N/A   Overcast
1:53 AM 66.9 °F 66.0 °F 97% 29.99 in 8.0 mi South 6.9 mph - N/A   Overcast
2:53 AM 66.9 °F 66.0 °F 97% 30.00 in 6.0 mi SSW 4.6 mph - N/A   Overcast
3:30 AM 66.9 °F 66.0 °F 97% 30.00 in 2.5 mi South 3.5 mph - N/A   Overcast
3:45 AM 66.9 °F 66.0 °F 97% 30.00 in 1.0 mi SSW 3.5 mph - N/A   Overcast
3:53 AM 66.9 °F 66.0 °F 97% 29.99 in 0.8 mi South 4.6 mph - N/A   Mist
4:17 AM 66.9 °F 66.0 °F 97% 29.99 in 0.2 mi Calm Calm - N/A Fog Fog
4:53 AM 66.0 °F 66.0 °F 100% 29.99 in 0.5 mi SW 3.5 mph - N/A Fog Fog
5:53 AM 66.9 °F 66.9 °F 100% 30.02 in 1.0 mi WSW 5.8 mph - N/A   Mist
6:40 AM 66.9 °F 66.9 °F 100% 30.02 in 2.5 mi SW 8.1 mph - N/A   Overcast
6:53 AM 66.9 °F 66.9 °F 100% 30.03 in 6.0 mi West 8.1 mph - N/A   Overcast
7:53 AM 68.0 °F 66.9 °F 96% 30.05 in 10.0 mi WSW 8.1 mph - N/A   Overcast
8:53 AM 68.0 °F 66.9 °F 96% 30.06 in 10.0 mi West 4.6 mph - N/A   Overcast
9:20 AM 69.1 °F 66.9 °F 93% 30.08 in 10.0 mi NW 11.5 mph - N/A   Overcast
9:51 AM 60.8 °F 59.0 °F 94% 30.11 in 7.0 mi North 15.0 mph - 0.00 in   Overcast
9:53 AM 60.1 °F 59.0 °F 96% 30.11 in 8.0 mi North 17.3 mph - 0.00 in   Overcast
10:53 AM 57.0 °F 54.0 °F 89% 30.14 in 10.0 mi NNE 18.4 mph 26.5 mph N/A   Overcast
11:53 AM 57.0 °F 52.0 °F 83% 30.16 in 10.0 mi North 17.3 mph - N/A   Overcast
12:53 PM 59.0 °F 52.0 °F 78% 30.15 in 10.0 mi NNE 16.1 mph - N/A   Overcast
1:53 PM 61.0 °F 52.0 °F 72% 30.13 in 10.0 mi NNE 18.4 mph - N/A   Overcast
2:09 PM 60.1 °F 51.1 °F 72% 30.12 in 10.0 mi North 23.0 mph 28.8 mph N/A   Mostly Cloudy
2:53 PM 62.1 °F 51.1 °F 67% 30.10 in 10.0 mi North 18.4 mph 26.5 mph N/A   Scattered Clouds
3:53 PM 63.0 °F 52.0 °F 67% 30.09 in 10.0 mi NNE 19.6 mph - N/A   Clear
4:53 PM 62.1 °F 51.1 °F 67% 30.10 in 10.0 mi NE 17.3 mph 21.9 mph N/A   Clear
5:53 PM 61.0 °F 50.0 °F 67% 30.10 in 10.0 mi NNE 17.3 mph 23.0 mph N/A   Clear
6:53 PM 57.9 °F 48.9 °F 72% 30.12 in 10.0 mi NNE 17.3 mph - 0.00 in   Overcast
7:53 PM 54.0 °F 48.0 °F 80% 30.13 in 10.0 mi NNE 15.0 mph - 0.00 in Rain Light Rain
8:31 PM 53.1 °F 48.0 °F 83% 30.16 in 8.0 mi North 15.0 mph - 0.02 in Rain Light Rain
8:53 PM 53.1 °F 46.9 °F 80% 30.16 in 9.0 mi NE 10.4 mph - 0.03 in Rain Light Rain
9:53 PM 53.1 °F 46.9 °F 80% 30.19 in 10.0 mi North 6.9 mph - 0.02 in   Scattered Clouds
10:53 PM 52.0 °F 46.9 °F 83% 30.17 in 8.0 mi NE 9.2 mph - 0.01 in Rain , Thunderstorm Light Thunderstorms and Rain
11:06 PM 52.0 °F 46.9 °F 83% 30.18 in 10.0 mi NNE 9.2 mph - 0.00 in   Overcast
11:53 PM 53.1 °F 46.9 °F 80% 30.16 in 10.0 mi NE 11.5 mph - 0.00 in   Mostly Cloudy